• In Czech Republic
  • List of Countries
  • For 7 days
  • Water Temperature
  • Satellite Maps
  • Weather Map
  • Weather Widgets
  • user-avatar
    Login

    Hourly Weather Dhaka

    Today, 24 August, Thursday

    Time Temperature Precipitation Wind Pressure Humidity
    00:00 +31°C° 0 mm 2 mps 751 mmHg 75%
    01:00 +31°C° 0 mm 2 mps 751 mmHg 76%
    02:00 +30°C° 0 mm 2 mps 751 mmHg 78%
    03:00 +30°C° 0 mm 2 mps 750 mmHg 79%
    04:00 +30°C° 0 mm 2 mps 751 mmHg 81%
    05:00 +30°C° 0 mm 2 mps 751 mmHg 82%
    06:00 +30°C° 0 mm 2 mps 751 mmHg 83%
    07:00 +31°C° 0.2 mm 2 mps 752 mmHg 79%
    08:00 +33°C° 0.2 mm 3 mps 752 mmHg 75%
    09:00 +33°C° 0.2 mm 3 mps 752 mmHg 71%
    10:00 +34°C° 0 mm 3 mps 752 mmHg 67%
    11:00 +35°C° 0 mm 3 mps 751 mmHg 63%
    12:00 +36°C° 0 mm 3 mps 751 mmHg 60%
    13:00 +36°C° 0.4 mm 3 mps 750 mmHg 60%
    14:00 +36°C° 0.4 mm 3 mps 750 mmHg 60%
    15:00 +36°C° 0.4 mm 3 mps 749 mmHg 60%
    16:00 +36°C° 0.1 mm 3 mps 749 mmHg 63%
    17:00 +35°C° 0.1 mm 3 mps 748 mmHg 65%
    18:00 +35°C° 0.1 mm 3 mps 748 mmHg 68%
    19:00 +34°C° 0.2 mm 3 mps 749 mmHg 71%
    20:00 +33°C° 0.2 mm 3 mps 749 mmHg 73%
    21:00 +33°C° 0.2 mm 3 mps 750 mmHg 75%
    22:00 +31°C° 1.1 mm 3 mps 750 mmHg 78%
    23:00 +31°C° 1.1 mm 3 mps 750 mmHg 80%

    Tomorrow, 25 August, Friday

    Time Temperature Precipitation Wind Pressure Humidity
    00:00 +30°C° 1.1 mm 3 mps 750 mmHg 82%
    01:00 +30°C° 0.2 mm 3 mps 750 mmHg 83%
    02:00 +30°C° 0.2 mm 2 mps 750 mmHg 84%
    03:00 +30°C° 0.2 mm 2 mps 749 mmHg 85%
    04:00 +30°C° 0.2 mm 2 mps 750 mmHg 86%
    05:00 +29°C° 0.2 mm 2 mps 750 mmHg 87%
    06:00 +29°C° 0.2 mm 2 mps 750 mmHg 87%
    07:00 +30°C° 0 mm 2 mps 750 mmHg 81%
    08:00 +32°C° 0 mm 2 mps 750 mmHg 75%
    09:00 +34°C° 0 mm 2 mps 751 mmHg 69%
    10:00 +35°C° 0.1 mm 3 mps 751 mmHg 66%
    11:00 +35°C° 0.1 mm 3 mps 750 mmHg 63%
    12:00 +36°C° 0.1 mm 3 mps 750 mmHg 60%
    13:00 +36°C° 0.1 mm 3 mps 749 mmHg 60%
    14:00 +36°C° 0.1 mm 3 mps 748 mmHg 59%
    15:00 +37°C° 0.1 mm 3 mps 747 mmHg 59%
    16:00 +36°C° 0.2 mm 3 mps 747 mmHg 63%
    17:00 +35°C° 0.2 mm 3 mps 747 mmHg 66%
    18:00 +34°C° 0.2 mm 3 mps 747 mmHg 70%
    19:00 +34°C° 1.1 mm 3 mps 748 mmHg 74%
    20:00 +33°C° 1.1 mm 4 mps 749 mmHg 78%
    21:00 +32°C° 1.1 mm 4 mps 749 mmHg 82%
    22:00 +30°C° 1 mm 3 mps 749 mmHg 83%
    23:00 +30°C° 1 mm 3 mps 749 mmHg 85%

    Day after tomorrow, 26 August, Saturday

    Time Temperature Precipitation Wind Pressure Humidity
    00:00 +30°C° 1 mm 3 mps 749 mmHg 86%
    01:00 +30°C° 0.2 mm 2 mps 749 mmHg 87%
    02:00 +30°C° 0.2 mm 2 mps 749 mmHg 88%
    03:00 +29°C° 0.2 mm 2 mps 748 mmHg 89%
    04:00 +29°C° 0.1 mm 2 mps 749 mmHg 89%
    05:00 +29°C° 0.1 mm 2 mps 749 mmHg 90%
    06:00 +29°C° 0.1 mm 2 mps 749 mmHg 91%
    07:00 +30°C° 0.1 mm 3 mps 749 mmHg 86%
    08:00 +31°C° 0.1 mm 3 mps 750 mmHg 82%
    09:00 +33°C° 0.1 mm 3 mps 750 mmHg 77%
    10:00 +33°C° 0 mm 3 mps 750 mmHg 74%
    11:00 +34°C° 0 mm 4 mps 749 mmHg 71%
    12:00 +35°C° 0 mm 4 mps 749 mmHg 68%
    13:00 +35°C° 0 mm 4 mps 748 mmHg 65%
    14:00 +36°C° 0 mm 4 mps 747 mmHg 61%
    15:00 +36°C° 0 mm 3 mps 747 mmHg 58%
    16:00 +36°C° 0.1 mm 3 mps 747 mmHg 61%
    17:00 +35°C° 0.1 mm 3 mps 747 mmHg 64%
    18:00 +35°C° 0.1 mm 3 mps 747 mmHg 67%
    19:00 +34°C° 0.2 mm 3 mps 748 mmHg 71%
    20:00 +33°C° 0.2 mm 3 mps 748 mmHg 74%
    21:00 +32°C° 0.2 mm 4 mps 749 mmHg 77%
    22:00 +32°C° 0.5 mm 4 mps 749 mmHg 79%
    23:00 +30°C° 0.5 mm 4 mps 749 mmHg 82%

    27 August, Sunday

    Time Temperature Precipitation Wind Pressure Humidity
    00:00 +30°C° 0.5 mm 4 mps 749 mmHg 84%
    01:00 +29°C° 0 mm 4 mps 749 mmHg 85%
    02:00 +29°C° 0 mm 4 mps 748 mmHg 87%
    03:00 +29°C° 0 mm 4 mps 748 mmHg 88%
    04:00 +28°C° 0.5 mm 4 mps 748 mmHg 88%
    05:00 +28°C° 0.5 mm 4 mps 749 mmHg 89%
    06:00 +28°C° 0.5 mm 5 mps 749 mmHg 89%
    07:00 +29°C° 1.2 mm 5 mps 749 mmHg 86%
    08:00 +30°C° 1.2 mm 6 mps 750 mmHg 82%
    09:00 +30°C° 1.2 mm 7 mps 750 mmHg 79%
    10:00 +33°C° 0.5 mm 7 mps 750 mmHg 75%
    11:00 +34°C° 0.5 mm 7 mps 750 mmHg 71%
    12:00 +35°C° 0.5 mm 7 mps 749 mmHg 67%
    13:00 +35°C° 0.5 mm 7 mps 749 mmHg 66%
    14:00 +35°C° 0.5 mm 7 mps 748 mmHg 65%
    15:00 +36°C° 0.5 mm 7 mps 747 mmHg 63%
    16:00 +35°C° 0 mm 6 mps 748 mmHg 67%
    17:00 +34°C° 0 mm 5 mps 748 mmHg 71%
    18:00 +33°C° 0 mm 5 mps 748 mmHg 75%
    19:00 +32°C° 0 mm 4 mps 749 mmHg 77%
    20:00 +32°C° 0 mm 4 mps 750 mmHg 79%
    21:00 +30°C° 0 mm 3 mps 751 mmHg 81%
    22:00 +30°C° 0 mm 3 mps 751 mmHg 82%
    23:00 +30°C° 0 mm 3 mps 751 mmHg 83%

    28 August, Monday

    Time Temperature Precipitation Wind Pressure Humidity
    00:00 +30°C° 0 mm 3 mps 751 mmHg 84%
    01:00 +29°C° 0 mm 3 mps 750 mmHg 84%
    02:00 +29°C° 0 mm 3 mps 750 mmHg 85%
    03:00 +29°C° 0 mm 3 mps 750 mmHg 86%
    04:00 +29°C° 0.7 mm 3 mps 750 mmHg 87%
    05:00 +29°C° 0.7 mm 3 mps 751 mmHg 88%
    06:00 +28°C° 0.7 mm 3 mps 751 mmHg 89%
    07:00 +30°C° 0.2 mm 4 mps 751 mmHg 84%
    08:00 +32°C° 0.2 mm 4 mps 752 mmHg 78%
    09:00 +34°C° 0.2 mm 5 mps 752 mmHg 73%
    10:00 +35°C° 0.2 mm 5 mps 751 mmHg 68%
    11:00 +36°C° 0.2 mm 5 mps 751 mmHg 63%
    12:00 +37°C° 0.2 mm 5 mps 750 mmHg 59%
    13:00 +37°C° 0.5 mm 5 mps 750 mmHg 59%
    14:00 +37°C° 0.5 mm 5 mps 749 mmHg 59%
    15:00 +37°C° 0.5 mm 5 mps 748 mmHg 59%
    16:00 +36°C° 0.1 mm 5 mps 748 mmHg 63%
    17:00 +35°C° 0.1 mm 4 mps 749 mmHg 68%
    18:00 +34°C° 0.1 mm 4 mps 749 mmHg 72%
    19:00 +33°C° 0 mm 4 mps 749 mmHg 74%
    20:00 +32°C° 0 mm 4 mps 750 mmHg 77%
    21:00 +32°C° 0 mm 4 mps 751 mmHg 79%
    22:00 +30°C° 0 mm 3 mps 751 mmHg 81%
    23:00 +30°C° 0 mm 3 mps 751 mmHg 82%

    29 August, Tuesday

    Time Temperature Precipitation Wind Pressure Humidity
    00:00 +30°C° 0 mm 2 mps 751 mmHg 84%
    01:00 +30°C° 0 mm 2 mps 751 mmHg 85%
    02:00 +29°C° 0 mm 2 mps 750 mmHg 86%
    03:00 +29°C° 0 mm 2 mps 750 mmHg 86%
    04:00 +29°C° 0 mm 2 mps 751 mmHg 87%
    05:00 +29°C° 0 mm 3 mps 751 mmHg 88%
    06:00 +29°C° 0 mm 3 mps 751 mmHg 89%
    07:00 +30°C° 0 mm 3 mps 752 mmHg 82%
    08:00 +33°C° 0 mm 3 mps 752 mmHg 76%
    09:00 +34°C° 0 mm 4 mps 752 mmHg 70%
    10:00 +35°C° 0.1 mm 3 mps 752 mmHg 66%
    11:00 +36°C° 0.1 mm 3 mps 751 mmHg 62%
    12:00 +37°C° 0.1 mm 3 mps 751 mmHg 58%
    13:00 +37°C° 0 mm 3 mps 750 mmHg 58%
    14:00 +37°C° 0 mm 4 mps 749 mmHg 57%
    15:00 +37°C° 0 mm 4 mps 749 mmHg 56%
    16:00 +36°C° 0 mm 3 mps 749 mmHg 60%
    17:00 +36°C° 0 mm 3 mps 749 mmHg 64%
    18:00 +35°C° 0 mm 3 mps 749 mmHg 67%
    19:00 +34°C° 0 mm 3 mps 749 mmHg 70%
    20:00 +33°C° 0 mm 3 mps 750 mmHg 72%
    21:00 +33°C° 0 mm 3 mps 751 mmHg 75%
    22:00 +31°C° 0 mm 3 mps 751 mmHg 77%
    23:00 +31°C° 0 mm 3 mps 751 mmHg 78%
    Show more